Location: Saint Louis
(38.6272°N, 90.1978°W)
Time: 21:36:48
(UTC-05:00)

ISS - Pass Details

Date: 11 January 2013
Orbit: 401 x 404 km, 51.6° (Epoch: 25 July)

Event Time Altitude Azimuth Distance (km) Brightness Sun altitude
Exits shadow 04:42:07 - 153° (SSE) 2,047 0.6 -29.9°
Enters shadow 05:49:02 -58° 229° (SW) 11,244 3.9 -17.1°
Reaches altitude 10° 06:17:12 10° 221° (SW) 1,459 -0.7 -11.8°
Maximum altitude 06:20:27 65° 138° (SE) 452 -2.9 -11.2°
Drops below altitude 10° 06:23:45 10° 56° (ENE) 1,484 0.1 -10.6°
Sets 06:25:52 0° 54° (NE) 2,355 1.1 -10.2°
